Time,TemperatureF,DewpointF,PressureIn,WindDirection,WindDirectionDegrees,WindSpeedMPH,WindSpeedGustMPH,Humidity,HourlyPrecipIn,Conditions,Clouds,dailyrainin,SolarRadiationWatts/m^2,SoftwareType,DateUTC
2013-11-24 00:10:00,50.3,45.0,29.72,North,11,0.0,0.0,81,0.00,,,0.00,0,weatherlink.com 1.10,2013-11-23 23:10:00,
2013-11-24 00:25:00,50.2,45.0,29.72,North,11,0.0,2.0,81,0.00,,,0.00,0,weatherlink.com 1.10,2013-11-23 23:25:00,
2013-11-24 00:40:00,50.3,44.0,29.72,North,11,0.0,2.0,80,0.00,,,0.00,0,weatherlink.com 1.10,2013-11-23 23:40:00,
2013-11-24 00:55:00,50.4,45.0,29.71,North,11,0.0,1.0,81,0.00,,,0.00,0,weatherlink.com 1.10,2013-11-23 23:55:00,
2013-11-24 01:10:00,50.2,45.0,29.71,North,11,0.0,1.0,81,0.00,,,0.00,0,weatherlink.com 1.10,2013-11-24 00:10:00,
2013-11-24 01:25:00,50.0,45.0,29.71,North,11,0.0,1.0,82,0.00,,,0.00,0,weatherlink.com 1.10,2013-11-24 00:25:00,
2013-11-24 01:40:00,49.9,44.0,29.72,North,11,0.0,0.0,81,0.00,,,0.00,0,weatherlink.com 1.10,2013-11-24 00:40:00,
2013-11-24 01:55:00,49.8,45.0,29.72,NNE,12,0.0,3.0,82,0.00,,,0.00,0,weatherlink.com 1.10,2013-11-24 00:55:00,
2013-11-24 02:10:00,49.7,44.0,29.71,North,11,0.0,1.0,81,0.00,,,0.00,0,weatherlink.com 1.10,2013-11-24 01:10:00,
2013-11-24 02:25:00,49.7,44.0,29.71,North,11,0.0,3.0,81,0.00,,,0.00,0,weatherlink.com 1.10,2013-11-24 01:25:00,
2013-11-24 02:40:00,49.7,44.0,29.70,West,264,1.0,3.0,81,0.00,,,0.00,0,weatherlink.com 1.10,2013-11-24 01:40:00,
2013-11-24 02:55:00,50.0,44.0,29.70,North,355,0.0,1.0,81,0.00,,,0.00,0,weatherlink.com 1.10,2013-11-24 01:55:00,
2013-11-24 03:10:00,50.1,45.0,29.70,North,349,0.0,1.0,83,0.01,,,0.01,0,weatherlink.com 1.10,2013-11-24 02:10:00,
2013-11-24 03:25:00,49.7,45.0,29.70,North,350,0.0,1.0,83,0.01,,,0.01,0,weatherlink.com 1.10,2013-11-24 02:25:00,
2013-11-24 03:40:00,49.6,45.0,29.70,North,351,0.0,0.0,84,0.01,,,0.01,0,weatherlink.com 1.10,2013-11-24 02:40:00,
2013-11-24 03:55:00,49.5,45.0,29.69,NE,35,0.0,2.0,83,0.01,,,0.01,0,weatherlink.com 1.10,2013-11-24 02:55:00,
2013-11-24 04:10:00,49.5,45.0,29.70,NE,35,0.0,1.0,84,0.00,,,0.01,0,weatherlink.com 1.10,2013-11-24 03:10:00,
2013-11-24 04:25:00,49.3,45.0,29.69,NE,36,0.0,1.0,85,0.01,,,0.02,0,weatherlink.com 1.10,2013-11-24 03:25:00,
2013-11-24 04:40:00,49.2,45.0,29.69,NE,35,0.0,0.0,85,0.01,,,0.02,0,weatherlink.com 1.10,2013-11-24 03:40:00,
2013-11-24 04:55:00,49.1,45.0,29.69,NE,36,0.0,0.0,86,0.01,,,0.02,0,weatherlink.com 1.10,2013-11-24 03:55:00,
2013-11-24 05:10:00,49.1,45.0,29.70,NE,34,0.0,0.0,87,0.02,,,0.03,0,weatherlink.com 1.10,2013-11-24 04:10:00,
2013-11-24 05:25:00,49.0,45.0,29.70,NE,36,0.0,0.0,87,0.02,,,0.04,0,weatherlink.com 1.10,2013-11-24 04:25:00,
2013-11-24 05:40:00,48.6,45.0,29.70,SE,132,0.0,1.0,88,0.05,,,0.06,0,weatherlink.com 1.10,2013-11-24 04:40:00,
2013-11-24 05:55:00,48.4,45.0,29.70,ESE,105,0.0,0.0,89,0.06,,,0.08,0,weatherlink.com 1.10,2013-11-24 04:55:00,
2013-11-24 06:10:00,48.2,45.0,29.70,ESE,103,0.0,0.0,89,0.07,,,0.10,0,weatherlink.com 1.10,2013-11-24 05:10:00,
2013-11-24 06:25:00,48.1,45.0,29.70,ESE,103,0.0,1.0,89,0.07,,,0.11,0,weatherlink.com 1.10,2013-11-24 05:25:00,
2013-11-24 06:40:00,48.1,45.0,29.70,ESE,105,0.0,0.0,90,0.06,,,0.13,0,weatherlink.com 1.10,2013-11-24 05:40:00,
2013-11-24 06:55:00,48.1,45.0,29.70,ESE,105,0.0,0.0,90,0.06,,,0.13,0,weatherlink.com 1.10,2013-11-24 05:55:00,
2013-11-24 07:10:00,48.0,45.0,29.70,ESE,104,0.0,0.0,90,0.04,,,0.14,0,weatherlink.com 1.10,2013-11-24 06:10:00,
2013-11-24 07:40:00,48.6,46.0,29.71,ESE,105,0.0,0.0,91,0.03,,,0.16,0,weatherlink.com 1.10,2013-11-24 06:40:00,
2013-11-24 07:55:00,48.1,46.0,29.71,ESE,105,0.0,1.0,91,0.03,,,0.17,5,weatherlink.com 1.10,2013-11-24 06:55:00,
2013-11-24 08:10:00,47.9,46.0,29.71,NE,55,0.0,1.0,91,0.04,,,0.18,5,weatherlink.com 1.10,2013-11-24 07:10:00,
2013-11-24 08:25:00,47.8,45.0,29.71,NE,51,0.0,1.0,91,0.06,,,0.20,11,weatherlink.com 1.10,2013-11-24 07:25:00,
2013-11-24 08:40:00,47.7,46.0,29.71,NE,51,0.0,1.0,92,0.06,,,0.21,7,weatherlink.com 1.10,2013-11-24 07:40:00,
2013-11-24 08:55:00,47.6,45.0,29.71,NE,48,0.0,1.0,92,0.06,,,0.23,11,weatherlink.com 1.10,2013-11-24 07:55:00,
2013-11-24 09:11:00,47.6,45.0,29.71,NE,49,0.0,2.0,92,0.06,,,0.24,9,weatherlink.com 1.10,2013-11-24 08:11:00,
2013-11-24 09:26:00,47.6,45.0,29.71,NE,44,0.0,1.0,92,0.06,,,0.26,16,weatherlink.com 1.10,2013-11-24 08:26:00,
2013-11-24 09:41:00,47.8,46.0,29.71,North,5,0.0,1.0,92,0.06,,,0.28,21,weatherlink.com 1.10,2013-11-24 08:41:00,
2013-11-24 09:56:00,47.9,46.0,29.71,North,5,0.0,2.0,92,0.06,,,0.28,18,weatherlink.com 1.10,2013-11-24 08:56:00,
2013-11-24 10:11:00,47.9,46.0,29.71,North,5,0.0,2.0,92,0.06,,,0.30,14,weatherlink.com 1.10,2013-11-24 09:11:00,
2013-11-24 10:26:00,47.9,46.0,29.71,North,5,0.0,1.0,93,0.06,,,0.31,18,weatherlink.com 1.10,2013-11-24 09:26:00,
2013-11-24 10:41:00,47.9,46.0,29.71,North,5,0.0,1.0,93,0.06,,,0.33,28,weatherlink.com 1.10,2013-11-24 09:41:00,
2013-11-24 10:56:00,48.1,46.0,29.71,North,5,0.0,1.0,93,0.06,,,0.34,28,weatherlink.com 1.10,2013-11-24 09:56:00,
2013-11-24 11:11:00,47.9,46.0,29.71,North,5,0.0,0.0,92,0.04,,,0.34,26,weatherlink.com 1.10,2013-11-24 10:11:00,
2013-11-24 11:26:00,48.0,46.0,29.70,North,5,0.0,2.0,93,0.03,,,0.35,33,weatherlink.com 1.10,2013-11-24 10:26:00,
2013-11-24 11:41:00,48.2,46.0,29.70,North,5,0.0,2.0,93,0.03,,,0.36,39,weatherlink.com 1.10,2013-11-24 10:41:00,
2013-11-24 11:56:00,48.2,46.0,29.70,North,5,0.0,1.0,93,0.03,,,0.37,32,weatherlink.com 1.10,2013-11-24 10:56:00,
2013-11-24 12:11:00,48.2,46.0,29.69,North,5,0.0,2.0,93,0.04,,,0.38,32,weatherlink.com 1.10,2013-11-24 11:11:00,
2013-11-24 12:41:00,48.4,47.0,29.68,North,5,0.0,1.0,93,0.03,,,0.39,44,weatherlink.com 1.10,2013-11-24 11:41:00,
2013-11-24 12:56:00,48.5,47.0,29.68,North,9,0.0,1.0,93,0.03,,,0.40,44,weatherlink.com 1.10,2013-11-24 11:56:00,
2013-11-24 13:11:00,48.3,46.0,29.68,North,5,0.0,2.0,93,0.02,,,0.40,35,weatherlink.com 1.10,2013-11-24 12:11:00,
2013-11-24 13:26:00,48.1,46.0,29.69,North,5,0.0,2.0,93,0.02,,,0.41,30,weatherlink.com 1.10,2013-11-24 12:26:00,
2013-11-24 13:41:00,48.2,46.0,29.68,North,5,0.0,2.0,93,0.02,,,0.41,30,weatherlink.com 1.10,2013-11-24 12:41:00,
2013-11-24 13:56:00,48.2,46.0,29.68,North,5,0.0,1.0,93,0.02,,,0.42,25,weatherlink.com 1.10,2013-11-24 12:56:00,
2013-11-24 14:11:00,48.2,46.0,29.68,North,5,1.0,3.0,93,0.02,,,0.42,21,weatherlink.com 1.10,2013-11-24 13:11:00,
2013-11-24 14:26:00,48.1,46.0,29.68,North,9,0.0,3.0,93,0.02,,,0.43,21,weatherlink.com 1.10,2013-11-24 13:26:00,
2013-11-24 14:41:00,48.1,46.0,29.68,North,5,0.0,1.0,93,0.02,,,0.43,21,weatherlink.com 1.10,2013-11-24 13:41:00,
2013-11-24 14:56:00,48.2,46.0,29.69,North,5,0.0,1.0,93,0.02,,,0.43,12,weatherlink.com 1.10,2013-11-24 13:56:00,
2013-11-24 15:11:00,48.6,47.0,29.69,North,9,0.0,0.0,93,0.02,,,0.44,11,weatherlink.com 1.10,2013-11-24 14:11:00,
2013-11-24 15:26:00,48.8,47.0,29.69,North,5,0.0,0.0,94,0.02,,,0.44,7,weatherlink.com 1.10,2013-11-24 14:26:00,
2013-11-24 15:41:00,48.3,46.0,29.69,North,5,0.0,0.0,93,0.02,,,0.45,0,weatherlink.com 1.10,2013-11-24 14:41:00,
2013-11-24 15:56:00,47.9,46.0,29.69,North,5,0.0,1.0,93,0.02,,,0.46,0,weatherlink.com 1.10,2013-11-24 14:56:00,
2013-11-24 16:11:00,47.6,46.0,29.69,North,5,0.0,0.0,93,0.02,,,0.46,0,weatherlink.com 1.10,2013-11-24 15:11:00,
2013-11-24 16:26:00,47.3,45.0,29.69,North,5,0.0,0.0,93,0.02,,,0.46,0,weatherlink.com 1.10,2013-11-24 15:26:00,
2013-11-24 16:41:00,47.2,45.0,29.69,North,5,0.0,0.0,93,0.02,,,0.46,0,weatherlink.com 1.10,2013-11-24 15:41:00,
2013-11-24 16:56:00,46.7,45.0,29.69,North,5,0.0,0.0,93,0.01,,,0.46,0,weatherlink.com 1.10,2013-11-24 15:56:00,
2013-11-24 17:11:00,46.4,45.0,29.69,North,5,0.0,0.0,93,0.01,,,0.46,0,weatherlink.com 1.10,2013-11-24 16:11:00,
2013-11-24 17:26:00,46.4,45.0,29.69,North,5,0.0,0.0,93,0.01,,,0.47,0,weatherlink.com 1.10,2013-11-24 16:26:00,
2013-11-24 17:41:00,46.3,44.0,29.69,North,5,0.0,0.0,93,0.01,,,0.47,0,weatherlink.com 1.10,2013-11-24 16:41:00,
2013-11-24 17:56:00,46.3,44.0,29.69,North,5,0.0,1.0,93,0.01,,,0.47,0,weatherlink.com 1.10,2013-11-24 16:56:00,
2013-11-24 18:11:00,46.3,44.0,29.69,North,5,0.0,0.0,93,0.02,,,0.48,0,weatherlink.com 1.10,2013-11-24 17:11:00,
2013-11-24 18:26:00,46.4,45.0,29.69,North,5,0.0,0.0,93,0.01,,,0.48,0,weatherlink.com 1.10,2013-11-24 17:26:00,
2013-11-24 18:41:00,46.5,45.0,29.69,North,9,0.0,1.0,93,0.01,,,0.48,0,weatherlink.com 1.10,2013-11-24 17:41:00,
2013-11-24 19:11:00,46.6,45.0,29.69,North,5,0.0,1.0,93,0.01,,,0.49,0,weatherlink.com 1.10,2013-11-24 18:11:00,
2013-11-24 19:26:00,46.5,45.0,29.69,NNE,25,0.0,0.0,93,0.01,,,0.49,0,weatherlink.com 1.10,2013-11-24 18:26:00,
2013-11-24 19:41:00,46.5,45.0,29.69,NNE,16,0.0,1.0,93,0.02,,,0.50,0,weatherlink.com 1.10,2013-11-24 18:41:00,
2013-11-24 19:56:00,46.5,45.0,29.69,NNE,17,0.0,1.0,93,0.02,,,0.50,0,weatherlink.com 1.10,2013-11-24 18:56:00,
2013-11-24 20:11:00,46.4,45.0,29.69,SSW,207,0.0,1.0,93,0.02,,,0.50,0,weatherlink.com 1.10,2013-11-24 19:11:00,
2013-11-24 20:26:00,46.4,45.0,29.69,North,360,0.0,0.0,93,0.02,,,0.50,0,weatherlink.com 1.10,2013-11-24 19:26:00,
2013-11-24 20:41:00,46.4,44.0,29.69,SSW,211,0.0,0.0,92,0.02,,,0.51,0,weatherlink.com 1.10,2013-11-24 19:41:00,
2013-11-24 20:56:00,46.3,44.0,29.69,NE,35,0.0,3.0,92,0.01,,,0.51,0,weatherlink.com 1.10,2013-11-24 19:56:00,
2013-11-24 21:11:00,51.0,50.0,29.69,North,360,0.0,2.0,96,0.02,,,0.52,0,weatherlink.com 1.10,2013-11-24 20:11:00,
2013-11-24 21:26:00,47.7,45.0,29.69,SSE,164,0.0,2.0,91,0.02,,,0.52,0,weatherlink.com 1.10,2013-11-24 20:26:00,
2013-11-24 21:41:00,46.7,45.0,29.69,SSE,168,0.0,2.0,92,0.02,,,0.53,0,weatherlink.com 1.10,2013-11-24 20:41:00,
2013-11-24 21:56:00,46.4,44.0,29.68,South,188,0.0,2.0,92,0.02,,,0.54,0,weatherlink.com 1.10,2013-11-24 20:56:00,
2013-11-24 22:11:00,45.9,44.0,29.68,North,360,0.0,4.0,92,0.02,,,0.54,0,weatherlink.com 1.10,2013-11-24 21:11:00,
2013-11-24 22:26:00,45.4,43.0,29.68,North,360,1.0,3.0,92,0.02,,,0.54,0,weatherlink.com 1.10,2013-11-24 21:26:00,
2013-11-24 22:41:00,44.8,42.0,29.68,SW,220,2.0,7.0,91,0.02,,,0.54,0,weatherlink.com 1.10,2013-11-24 21:41:00,
2013-11-24 22:56:00,44.2,42.0,29.68,South,186,0.0,6.0,91,0.01,,,0.54,0,weatherlink.com 1.10,2013-11-24 21:56:00,
2013-11-24 23:11:00,43.6,41.0,29.68,North,360,1.0,6.0,90,0.01,,,0.00,0,weatherlink.com 1.10,2013-11-24 22:11:00,
2013-11-24 23:26:00,43.2,41.0,29.67,NE,53,0.0,6.0,90,0.02,,,0.01,0,weatherlink.com 1.10,2013-11-24 22:26:00,
2013-11-24 23:41:00,42.8,40.0,29.68,SSW,211,3.0,8.0,90,0.01,,,0.01,0,weatherlink.com 1.10,2013-11-24 22:41:00,
2013-11-24 23:56:00,42.5,40.0,29.68,WSW,245,1.0,6.0,89,0.02,,,0.02,0,weatherlink.com 1.10,2013-11-24 22:56:00,